[[{"header":{"parameterUnit":"m.s-1","parameterCategory":1,"la1":30.2991,"la2":30.254,"lo1":-89.0895,"lo2":-89.0444,"dy":0.0017,"dx":0.0017,"nx":28,"ny":28,"refTime":"2026-02-09T09:00:00:Z","depth":0,"parameterNumber":2,"parameterNumberName":"U-component_of_WINDS"},"data":[0,0,0,0,0,0,0,0,0,0,0,0,0,0,0,0,0,0,0,0,0,0,0,0,0,0,0,0,0,0,0,0,0,0,0,0,0,0,0,0,0,0,0,0,0,0,0,0,0,0,0,0,0,0,0,0,0,0,-1.1922,-1.1923,0,-1.1949,-1.1949,-1.1949,-1.1942,-1.1941,-1.1941,-1.194,-1.1965,-1.1966,-1.1968,0,0,0,0,0,0,0,0,0,0,0,0,0,-1.1863,-1.1864,-1.1922,-1.1923,-1.1923,-1.1949,-1.1949,-1.1949,-1.1942,-1.1941,-1.194,-1.194,-1.1965,-1.1966,-1.1968,0,0,0,0,0,0,0,0,0,0,0,0,0,-1.1889,-1.1865,-1.1922,-1.1922,-1.1923,-1.1949,-1.1949,-1.1949,-1.1942,-1.1941,-1.194,-1.1939,-1.1964,-1.1966,-1.1968,-1.1995,0,0,-1.1973,-1.1974,0,0,0,0,0,0,0,0,-1.1888,-1.1891,-1.1922,-1.1922,-1.1923,-1.1941,-1.1937,-1.1965,-1.1942,-1.1934,-1.194,-1.1939,-1.1958,-1.196,-1.1967,-1.1996,-1.1997,-1.1973,-1.1974,-1.1975,-1.1976,0,0,0,0,0,0,0,-1.1886,-1.189,-1.1933,-1.1922,-1.1923,-1.192,-1.1923,-1.1942,-1.195,-1.1935,-1.1935,-1.1938,-1.1958,-1.1965,-1.1967,-1.1997,-1.1973,-1.1975,-1.1976,-1.1977,-1.2048,-1.2049,0,0,0,0,0,0,-1.1884,-1.1889,-1.1932,-1.1934,-1.1903,-1.1922,-1.1925,-1.1936,-1.195,-1.1951,-1.1939,-1.1937,-1.1962,-1.1965,-1.1968,-1.1999,-1.1975,-1.1977,-1.1978,-1.2047,-1.2048,-1.2049,0,0,0,0,0,0,-1.1883,-1.1888,-1.1931,-1.1911,-1.1916,-1.1924,-1.1936,-1.1937,-1.1944,-1.1953,-1.1954,-1.1945,-1.1962,-1.1966,-1.1988,-1.2,-1.1978,-1.1979,-1.2046,-1.2047,-1.2049,-1.2062,0,0,0,0,0,0,-1.1881,-1.1888,-1.1899,-1.1911,-1.1917,-1.1951,-1.1937,-1.1938,-1.1947,-1.1946,-1.1959,-1.196,-1.1961,-1.1985,-1.199,-1.2002,-1.1981,-1.2045,-1.2047,-1.2048,-1.206,-1.2063,-1.2066,0,0,0,0,0,-1.1879,-1.1901,-1.1899,-1.1904,-1.1931,-1.1952,-1.1955,-1.1957,-1.1948,-1.1959,-1.1964,-1.196,-1.1998,-1.1988,-1.1992,-1.2005,-1.2044,-1.2046,-1.2048,-1.2059,-1.2063,-1.2066,0,0,0,0,0,0,-1.189,-1.1903,-1.1901,-1.1928,-1.1939,-1.195,-1.1964,-1.1961,-1.1974,-1.1972,-1.1974,-1.1976,-1.1999,-1.2004,-1.1993,-1.2031,-1.202,-1.2023,-1.2026,-1.203,-1.2033,-1.203,-1.1982,0,0,0,0,0,-1.1895,-1.1912,-1.1922,-1.1945,-1.1951,-1.1956,-1.1965,-1.1966,-1.1977,-1.1981,-1.1988,-1.1998,-1.2012,-1.2022,-1.2035,-1.2061,-1.2063,-1.2073,-1.2075,-1.2078,-1.208,-1.2092,-1.2096,-1.2055,-1.2055,-1.2055,0,0,-1.1907,-1.1916,-1.1926,-1.1947,-1.1956,-1.1971,-1.196,-1.1978,-1.1989,-1.1984,-1.2005,-1.201,-1.2021,-1.2045,-1.2056,-1.2051,-1.2091,-1.208,-1.2082,-1.2083,-1.2094,-1.2098,-1.2101,-1.2057,-1.2056,-1.2056,0,0,-1.1936,-1.1945,-1.1965,-1.1973,-1.1986,-1.1989,-1.1994,-1.2006,-1.2009,-1.203,-1.2026,-1.2039,-1.2064,-1.2072,-1.2079,-1.2109,-1.2105,-1.2114,-1.2128,-1.214,-1.2143,-1.2146,-1.2155,-1.2159,-1.2116,-1.2116,-1.2116,0,-1.1948,-1.1973,-1.1975,-1.1992,-1.2001,-1.1997,-1.2015,-1.2023,-1.204,-1.2045,-1.2039,-1.2069,-1.2077,-1.2101,-1.2109,-1.2115,-1.2119,-1.2112,-1.2143,-1.2146,-1.2148,-1.2157,-1.216,-1.2117,-1.2117,-1.2117,-1.2117,0,-1.1986,-1.2003,-1.2017,-1.2033,-1.2043,-1.2061,-1.2065,-1.2075,-1.2074,-1.2078,-1.2098,-1.2107,-1.2122,-1.2128,-1.2128,-1.2152,-1.2148,-1.2142,-1.2131,-1.2153,-1.2161,-1.2164,-1.2118,-1.2118,-1.2118,-1.2118,0,0,-1.2023,-1.2039,-1.2044,-1.205,-1.2063,-1.2076,-1.2093,-1.2107,-1.2115,-1.2126,-1.214,-1.216,-1.2155,-1.2163,-1.2163,-1.2174,-1.2195,-1.2167,-1.2167,-1.217,-1.222,-1.2224,-1.2227,-1.2193,-1.2193,-1.2194,-1.2219,0,-1.2051,-1.2082,-1.2084,-1.2111,-1.2125,-1.2121,-1.2136,-1.2145,-1.2149,-1.2161,-1.2165,-1.2178,-1.2171,-1.2176,-1.2186,-1.219,-1.2205,-1.2189,-1.2204,-1.2204,-1.22,-1.2232,-1.2236,-1.2259,-1.2222,-1.2223,-1.2223,0,-1.2089,-1.2101,-1.2129,-1.2139,-1.2145,-1.2158,-1.2171,-1.2183,-1.2193,-1.2194,-1.2203,-1.2201,-1.2218,-1.2206,-1.2228,-1.2217,-1.2223,-1.2226,-1.2227,-1.2227,-1.2214,-1.2232,-1.2267,-1.2269,-1.2229,-1.2228,-1.2228,0,-1.211,-1.2134,-1.2153,-1.2159,-1.2171,-1.218,-1.2186,-1.2195,-1.2203,-1.2214,-1.2219,-1.2231,-1.2238,-1.2247,-1.2248,-1.224,-1.2269,-1.2258,-1.227,-1.227,-1.2275,-1.2275,-1.231,-1.2282,-1.2282,-1.2282,-1.2282,0,-1.2141,-1.2158,-1.2163,-1.2175,-1.2193,-1.2195,-1.2213,-1.2218,-1.2226,-1.2237,-1.2235,-1.2246,-1.2248,-1.2259,-1.2261,-1.2277,-1.228,-1.2281,-1.2281,-1.2281,-1.228,-1.2284,-1.2282,-1.2283,-1.2282,-1.2282,-1.2282,0,-1.2168,-1.2172,-1.2193,-1.2202,-1.2205,-1.2218,-1.2226,-1.2237,-1.224,-1.2255,-1.2259,-1.2263,-1.2276,-1.2279,-1.2295,-1.2295,-1.2314,-1.2313,-1.2311,-1.231,-1.2321,-1.232,-1.2359,-1.2364,-1.2334,-1.2334,-1.2334,0,-1.2187,-1.22,-1.221,-1.2218,-1.2224,-1.2237,-1.2245,-1.2247,-1.2255,-1.2266,-1.2275,-1.2288,-1.2298,-1.2319,-1.2323,-1.2334,-1.2333,-1.2346,-1.2334,-1.2333,-1.2331,-1.233,-1.233,-1.2348,-1.2348,-1.2348,-1.2348,0,-1.2219,-1.222,-1.2232,-1.2244,-1.2253,-1.2263,-1.2272,-1.2279,-1.2281,-1.2291,-1.2304,-1.2312,-1.2327,-1.2339,-1.235,-1.2355,-1.2351,-1.2352,-1.2355,-1.2354,-1.2352,-1.2351,-1.2315,-1.2351,-1.2351,-1.235,-1.235,-1.235,-1.2241,-1.2252,-1.2261,-1.2273,-1.228,-1.2289,-1.2299,-1.2303,-1.2314,-1.2327,-1.2327,-1.2341,-1.2349,-1.2364,-1.2369,-1.2379,-1.2375,-1.238,-1.2381,-1.2381,-1.2382,-1.2351,-1.2382,-1.2381,-1.2381,-1.2381,-1.2381,0,-1.2272,-1.2277,-1.2289,-1.2301,-1.2311,-1.2308,-1.2317,-1.2325,-1.2338,-1.2346,-1.2356,-1.237,-1.2381,-1.2386,-1.2397,-1.2405,-1.2403,-1.2407,-1.2406,-1.2407,-1.2386,-1.2381,-1.2408,-1.2408,-1.2408,-1.2408,-1.2408,-1.2408,-1.2289,-1.2306,-1.2308,-1.2328,-1.2333,-1.2347,-1.2352,-1.236,-1.2366,-1.2382,-1.2391,-1.2395,-1.2401,-1.2412,-1.2422,-1.2423,-1.2427,-1.2431,-1.2431,-1.2411,-1.2409,-1.2406,-1.2402,-1.2432,-1.2432,-1.2451,-1.2452,-1.2452]},{"header":{"parameterUnit":"m.s-1","parameterCategory":1,"la1":30.2991,"la2":30.254,"lo1":-89.0895,"lo2":-89.0444,"dy":0.0017,"dx":0.0017,"nx":28,"ny":28,"refTime":"2026-02-09T09:00:00:Z","depth":0,"parameterNumber":3,"parameterNumberName":"V-component_of_WINDS"},"data":[0,0,0,0,0,0,0,0,0,0,0,0,0,0,0,0,0,0,0,0,0,0,0,0,0,0,0,0,0,0,0,0,0,0,0,0,0,0,0,0,0,0,0,0,0,0,0,0,0,0,0,0,0,0,0,0,0,0,1.1803,1.1803,0,1.1793,1.1793,1.1793,1.1786,1.1786,1.1786,1.1786,1.1773,1.1773,1.1772,0,0,0,0,0,0,0,0,0,0,0,0,0,1.1817,1.1817,1.1803,1.1803,1.1803,1.1793,1.1793,1.1793,1.1786,1.1786,1.1786,1.1786,1.1773,1.1773,1.1772,0,0,0,0,0,0,0,0,0,0,0,0,0,1.1809,1.1817,1.1803,1.1799,1.1798,1.1793,1.1793,1.1793,1.1786,1.1786,1.1786,1.1786,1.1773,1.1773,1.1772,1.177,0,0,1.1771,1.1771,0,0,0,0,0,0,0,0,1.181,1.1809,1.18,1.1799,1.1799,1.1791,1.1793,1.1785,1.1786,1.1791,1.1786,1.1786,1.1779,1.1778,1.1776,1.1769,1.1769,1.1771,1.1771,1.177,1.177,0,0,0,0,0,0,0,1.181,1.1809,1.1799,1.1799,1.1799,1.1797,1.1796,1.1791,1.1785,1.179,1.179,1.1789,1.1779,1.1776,1.1776,1.1768,1.1771,1.177,1.177,1.177,1.1761,1.1761,0,0,0,0,0,0,1.1812,1.181,1.1799,1.1799,1.1804,1.1797,1.1796,1.1793,1.1785,1.1784,1.1789,1.1789,1.1777,1.1776,1.1775,1.1773,1.177,1.177,1.177,1.1761,1.1761,1.1761,0,0,0,0,0,0,1.1812,1.1811,1.18,1.1804,1.1803,1.1797,1.1794,1.1793,1.1791,1.1784,1.1783,1.1788,1.1777,1.1776,1.1772,1.1772,1.177,1.1769,1.1761,1.1761,1.1761,1.1768,0,0,0,0,0,0,1.1812,1.1811,1.181,1.1804,1.1802,1.1797,1.1794,1.1793,1.1791,1.179,1.1783,1.1782,1.1777,1.1773,1.1771,1.1772,1.1769,1.1761,1.1761,1.1761,1.1768,1.1768,1.1769,0,0,0,0,0,1.1813,1.1811,1.181,1.1809,1.1801,1.1797,1.1796,1.1792,1.1791,1.179,1.1786,1.1782,1.1773,1.1772,1.1771,1.1771,1.1761,1.1761,1.1761,1.1767,1.1768,1.1769,0,0,0,0,0,0,1.1816,1.181,1.1809,1.1805,1.1802,1.1796,1.1794,1.1792,1.1788,1.1788,1.1782,1.178,1.1777,1.1774,1.1773,1.1769,1.1766,1.1766,1.1772,1.1772,1.1773,1.1774,1.1768,0,0,0,0,0,1.1816,1.1814,1.1809,1.1806,1.1805,1.18,1.1798,1.1795,1.1791,1.1789,1.1785,1.178,1.1777,1.1774,1.177,1.1767,1.1766,1.1767,1.1767,1.1768,1.1768,1.1767,1.1768,1.1762,1.1762,1.1762,0,0,1.1817,1.1814,1.1812,1.1807,1.1804,1.1802,1.1799,1.1796,1.1794,1.1789,1.1785,1.1782,1.1777,1.1774,1.1772,1.177,1.1769,1.1768,1.1768,1.1768,1.1768,1.1768,1.1769,1.1762,1.1762,1.1762,0,0,1.1817,1.1814,1.1812,1.181,1.1806,1.1803,1.1803,1.1798,1.1796,1.1793,1.1789,1.1787,1.178,1.1777,1.1774,1.1776,1.1773,1.1775,1.1777,1.1777,1.1778,1.1778,1.178,1.178,1.1775,1.1775,1.1775,0,1.1817,1.1814,1.1811,1.1809,1.1807,1.1804,1.1803,1.18,1.1795,1.1794,1.1792,1.1786,1.1782,1.1779,1.1779,1.1777,1.1777,1.1775,1.1778,1.1778,1.1779,1.178,1.1781,1.1775,1.1775,1.1775,1.1775,0,1.1816,1.1814,1.1813,1.181,1.1808,1.1806,1.1803,1.1801,1.1799,1.1797,1.1794,1.179,1.1786,1.1785,1.1782,1.1782,1.1782,1.1779,1.1776,1.178,1.1781,1.1781,1.1775,1.1775,1.1775,1.1775,0,0,1.1816,1.1813,1.1812,1.1812,1.1808,1.1806,1.1805,1.1802,1.1802,1.1799,1.1798,1.1793,1.1792,1.1789,1.1786,1.1786,1.1789,1.1784,1.1784,1.1786,1.179,1.1792,1.1793,1.1787,1.1787,1.1787,1.1791,0,1.1815,1.1813,1.1812,1.181,1.1809,1.1807,1.1806,1.1804,1.1802,1.18,1.1798,1.1796,1.1793,1.1792,1.1792,1.1789,1.179,1.1788,1.1786,1.1786,1.1788,1.1793,1.1795,1.1798,1.1791,1.1791,1.1791,0,1.1814,1.1813,1.1812,1.1811,1.181,1.1809,1.1808,1.1806,1.1804,1.1803,1.1802,1.1799,1.1798,1.1796,1.1795,1.1794,1.1793,1.1792,1.1792,1.1791,1.1789,1.1793,1.1799,1.18,1.1792,1.1792,1.1792,0,1.1815,1.1813,1.1813,1.1812,1.181,1.181,1.1809,1.1807,1.1807,1.1805,1.1805,1.1803,1.1802,1.1801,1.1798,1.1796,1.1797,1.1795,1.1796,1.1797,1.1796,1.1796,1.1803,1.1795,1.1795,1.1795,1.1795,0,1.1815,1.1815,1.1814,1.1814,1.1814,1.1812,1.1812,1.1811,1.1809,1.1809,1.1807,1.1806,1.1803,1.1802,1.18,1.18,1.1799,1.1799,1.1798,1.1799,1.1799,1.1798,1.1798,1.1796,1.1796,1.1795,1.1795,0,1.1816,1.1815,1.1815,1.1814,1.1814,1.1814,1.1813,1.1813,1.1812,1.1812,1.1812,1.181,1.1809,1.1807,1.1805,1.1803,1.1804,1.1803,1.1805,1.1805,1.1807,1.1807,1.1813,1.1814,1.1806,1.1806,1.1806,0,1.1816,1.1816,1.1816,1.1816,1.1816,1.1816,1.1816,1.1815,1.1814,1.1814,1.1814,1.1813,1.1813,1.1812,1.181,1.1809,1.1808,1.1811,1.1808,1.181,1.1809,1.1809,1.181,1.1811,1.1811,1.1811,1.1811,0,1.1816,1.1817,1.1817,1.1818,1.1818,1.1818,1.1818,1.1818,1.1817,1.1817,1.1817,1.1817,1.1817,1.1817,1.1816,1.1815,1.1813,1.1812,1.1813,1.1814,1.1815,1.1815,1.1807,1.1812,1.1812,1.1812,1.1812,1.1812,1.1817,1.1818,1.1818,1.1819,1.182,1.182,1.1821,1.1821,1.1821,1.1821,1.1821,1.1821,1.1821,1.182,1.182,1.182,1.1819,1.1819,1.1819,1.182,1.1821,1.1816,1.182,1.182,1.182,1.182,1.182,0,1.1818,1.1819,1.182,1.1821,1.1822,1.1822,1.1822,1.1823,1.1824,1.1824,1.1825,1.1826,1.1826,1.1825,1.1826,1.1827,1.1826,1.1827,1.1827,1.1827,1.1821,1.1821,1.1827,1.1827,1.1827,1.1827,1.1827,1.1827,1.1818,1.182,1.1821,1.1823,1.1824,1.1825,1.1826,1.1827,1.1827,1.1829,1.183,1.183,1.183,1.1831,1.1832,1.1832,1.1832,1.1833,1.1833,1.1828,1.1827,1.1826,1.1826,1.1833,1.1833,1.1838,1.1838,1.1838]}]]